GW6728 Weather Reports


Display with metric or nautical units.
time (UTC)temp
F
wind
direction
speed
MPH
gust
MPH
rain 1hr
in
rain 24hr
in
rain mn
in
humidity
%
barometer
mb
20260504050014 37 0 0.0 0.0 0.00 0.00 0.00 79 1014.9
20260504045511 37 0 0.0 0.0 0.00 0.00 0.00 77 1014.9
20260504045013 37 0 0.0 0.0 0.00 0.00 0.00 77 1014.9
20260504044511 37 0 0.0 0.0 0.00 0.00 0.00 77 1014.9
20260504044011 38 0 0.0 0.0 0.00 0.00 0.00 77 1014.9
20260504043511 38 0 0.0 0.0 0.00 0.00 0.00 75 1014.9
20260504043012 38 202 0.0 2.0 0.00 0.00 0.00 75 1014.9
20260504042511 38 0 0.0 0.0 0.00 0.00 0.00 74 1014.9
20260504042012 39 0 0.0 0.0 0.00 0.00 0.00 75 1015.0
20260504041511 39 0 0.0 0.0 0.00 0.00 0.00 74 1015.0
20260504041012 39 0 0.0 0.0 0.00 0.00 0.00 72 1015.0
20260504040512 39 0 0.0 0.0 0.00 0.00 0.00 73 1014.9
20260504040012 39 0 0.0 0.0 0.00 0.00 0.00 73 1014.9
20260504035512 40 0 0.0 0.0 0.00 0.00 0.00 71 1014.9
20260504035014 40 0 0.0 0.0 0.00 0.00 0.00 71 1014.9
20260504034512 40 336 0.0 0.0 0.00 0.00 0.00 71 1014.9
20260504034013 40 0 0.0 0.0 0.00 0.00 0.00 72 1014.9
20260504033512 41 0 0.0 0.0 0.00 0.00 0.00 72 1014.9
20260504033012 41 0 0.0 0.0 0.00 0.00 0.00 71 1014.8
20260504032511 42 0 0.0 0.0 0.00 0.00 0.00 70 1014.8
20260504032012 42 0 0.0 0.0 0.00 0.00 0.00 68 1014.8
20260504031511 42 0 0.0 0.0 0.00 0.00 0.00 66 1014.9
20260504031012 43 0 0.0 0.0 0.00 0.00 0.00 68 1014.9
20260504030512 43 0 0.0 0.0 0.00 0.00 0.00 66 1014.9
20260504030014 44 0 0.0 0.0 0.00 0.00 0.00 64 1015.0
20260504025511 45 0 0.0 0.0 0.00 0.00 0.00 61 1015.0
20260504025012 45 0 0.0 0.0 0.00 0.00 0.00 62 1014.9
20260504024512 45 359 0.0 0.0 0.00 0.00 0.00 61 1014.9
20260504024012 46 8 0.0 1.0 0.00 0.00 0.00 59 1014.9
20260504023512 46 248 0.0 0.0 0.00 0.00 0.00 57 1014.8
20260504023012 46 0 0.0 0.0 0.00 0.00 0.00 57 1014.8
20260504022513 45 0 0.0 0.0 0.00 0.00 0.00 57 1014.8
20260504022013 45 304 0.0 3.0 0.00 0.00 0.00 57 1014.8
20260504021512 45 303 0.0 3.0 0.00 0.00 0.00 61 1014.8
20260504021012 45 341 0.0 1.0 0.00 0.00 0.00 61 1014.7
20260504020511 45 315 0.0 2.0 0.00 0.00 0.00 61 1014.6
20260504020012 45 0 0.0 0.0 0.00 0.00 0.00 63 1014.6
20260504015511 45 0 0.0 0.0 0.00 0.00 0.00 59 1014.5
20260504015012 45 334 1.0 4.0 0.00 0.00 0.00 61 1014.5
20260504014511 45 0 0.0 0.0 0.00 0.00 0.00 62 1014.5
20260504014011 45 313 1.0 3.0 0.00 0.00 0.00 61 1014.5
20260504013512 46 0 0.0 0.0 0.00 0.00 0.00 63 1014.4
20260504013012 46 326 2.0 4.0 0.00 0.00 0.00 60 1014.4
20260504012512 46 355 0.0 4.0 0.00 0.00 0.00 59 1014.4
20260504012012 47 9 1.0 4.0 0.00 0.00 0.00 59 1014.3
20260504011512 47 0 0.0 0.0 0.00 0.00 0.00 58 1014.3
20260504011012 48 0 0.0 0.0 0.00 0.00 0.00 58 1014.3
20260504010512 48 0 0.0 0.0 0.00 0.00 0.00 54 1014.3
20260504010012 49 0 0.0 0.0 0.00 0.00 0.00 55 1014.3
20260504005511 49 0 0.0 0.0 0.00 0.00 0.00 53 1014.2
20260504005011 49 0 0.0 0.0 0.00 0.00 0.00 54 1014.2
20260504004512 50 343 0.0 1.0 0.00 0.00 0.00 50 1014.1
20260504004012 51 4 0.0 2.0 0.00 0.00 0.00 50 1014.1
20260504003511 50 50 0.0 2.0 0.00 0.00 0.00 52 1014.1
20260504003012 51 132 0.0 2.0 0.00 0.00 0.00 52 1014.1
20260504002511 52 0 0.0 0.0 0.00 0.00 0.00 51 1014.1
20260504002012 52 334 1.0 3.0 0.00 0.00 0.00 47 1014.0
20260504001511 52 329 0.0 1.0 0.00 0.00 0.00 51 1014.0
20260504001012 53 321 0.0 2.0 0.00 0.00 0.00 48 1014.0
20260504000511 53 300 0.0 1.0 0.00 0.00 0.00 47 1014.0
20260504000012 54 0 0.0 0.0 0.00 0.00 0.00 47 1013.9
20260503235512 55 334 0.0 1.0 0.00 0.00 0.00 46 1013.9
20260503235012 56 279 1.0 3.0 0.00 0.00 0.00 46 1014.0
20260503234512 57 0 0.0 0.0 0.00 0.00 0.00 43 1013.9
20260503234011 58 14 1.0 2.0 0.00 0.00 0.00 38 1013.8
20260503233512 58 288 1.0 3.0 0.00 0.00 0.00 37 1013.9
20260503233011 58 351 2.0 3.0 0.00 0.00 0.00 35 1013.9
20260503232511 59 339 4.0 8.0 0.00 0.00 0.00 37 1013.9
20260503232011 59 330 4.0 5.0 0.00 0.00 0.00 35 1013.7
20260503231512 59 333 4.0 6.0 0.00 0.00 0.00 35 1013.7
20260503231011 60 247 3.0 5.0 0.00 0.00 0.00 35 1013.6
20260503230512 60 317 3.0 5.0 0.00 0.00 0.00 34 1013.7
20260503230011 61 326 2.0 5.0 0.00 0.00 0.00 33 1013.7
20260503225513 62 283 2.0 3.0 0.00 0.00 0.00 34 1013.7
20260503225011 62 289 2.0 4.0 0.00 0.00 0.00 34 1013.6
20260503224511 62 301 1.0 3.0 0.00 0.00 0.00 33 1013.6
20260503224012 62 315 2.0 4.0 0.00 0.00 0.00 33 1013.5
20260503223511 63 275 4.0 6.0 0.00 0.00 0.00 32 1013.5
20260503223012 63 287 3.0 4.0 0.00 0.00 0.00 33 1013.6
20260503222511 63 280 2.0 4.0 0.00 0.00 0.00 33 1013.6
20260503222012 63 248 6.0 9.0 0.00 0.00 0.00 34 1013.6
20260503221512 63 267 4.0 6.0 0.00 0.00 0.00 32 1013.7
20260503221011 63 347 3.0 6.0 0.00 0.00 0.00 32 1013.7
20260503220511 63 320 3.0 5.0 0.00 0.00 0.00 31 1013.7
20260503220015 63 309 4.0 6.0 0.00 0.00 0.00 32 1013.8
20260503215513 63 294 2.0 5.0 0.00 0.00 0.00 33 1013.7
20260503215011 64 316 4.0 10.0 0.00 0.00 0.00 32 1013.8
20260503214511 64 343 3.0 7.0 0.00 0.00 0.00 32 1013.8
20260503214011 63 299 3.0 4.0 0.00 0.00 0.00 32 1013.8
20260503213511 64 292 4.0 8.0 0.00 0.00 0.00 32 1013.7
20260503213011 64 283 6.0 9.0 0.00 0.00 0.00 32 1013.9
20260503212512 64 264 6.0 10.0 0.00 0.00 0.00 33 1013.6
20260503212012 64 304 4.0 6.0 0.00 0.00 0.00 34 1013.8
20260503211023 63 263 7.0 11.0 0.00 0.00 0.00 34 1013.9
20260503210512 64 275 6.0 8.0 0.00 0.00 0.00 34 1013.9
20260503210012 64 317 3.0 7.0 0.00 0.00 0.00 32 1013.8
20260503205512 64 285 4.0 9.0 0.00 0.00 0.00 33 1013.9
20260503205012 63 312 3.0 7.0 0.00 0.00 0.00 33 1013.9
20260503204511 62 299 6.0 11.0 0.00 0.00 0.00 32 1014.0
20260503204012 62 252 6.0 9.0 0.00 0.00 0.00 33 1013.8
20260503203511 62 295 6.0 9.0 0.00 0.00 0.00 34 1013.9
20260503203012 62 353 2.0 4.0 0.00 0.00 0.00 34 1013.8
20260503202511 63 311 5.0 8.0 0.00 0.00 0.00 33 1014.0
20260503202012 64 308 4.0 6.0 0.00 0.00 0.00 33 1014.1
20260503201512 65 256 8.0 15.0 0.00 0.00 0.00 33 1014.0
20260503201012 64 293 2.0 4.0 0.00 0.00 0.00 34 1014.1
20260503200511 64 278 5.0 9.0 0.00 0.00 0.00 33 1014.2
20260503200013 64 342 6.0 10.0 0.00 0.00 0.00 32 1014.2
20260503195513 65 301 7.0 11.0 0.00 0.00 0.00 31 1014.3
20260503195011 64 291 3.0 5.0 0.00 0.00 0.00 34 1014.2
20260503194511 64 291 4.0 9.0 0.00 0.00 0.00 34 1014.4
20260503194011 64 348 2.0 6.0 0.00 0.00 0.00 33 1014.4
20260503193511 63 330 2.0 4.0 0.00 0.00 0.00 33 1014.6
20260503193011 64 312 4.0 9.0 0.00 0.00 0.00 32 1014.7
20260503192513 63 271 3.0 6.0 0.00 0.00 0.00 34 1014.5
20260503192012 64 303 5.0 7.0 0.00 0.00 0.00 32 1014.6
20260503191513 64 322 6.0 9.0 0.00 0.00 0.00 32 1014.6
20260503190523 64 318 3.0 8.0 0.00 0.00 0.00 33 1014.7
20260503190013 63 74 4.0 12.0 0.00 0.00 0.00 32 1014.8
20260503185512 61 302 3.0 6.0 0.00 0.00 0.00 37 1014.9
20260503185012 61 286 8.0 11.0 0.00 0.00 0.00 35 1015.0
20260503184511 62 311 4.0 7.0 0.00 0.00 0.00 34 1015.0
20260503184012 63 344 3.0 7.0 0.00 0.00 0.00 32 1015.1
20260503183511 63 319 6.0 12.0 0.00 0.00 0.00 33 1015.1
20260503183013 63 314 4.0 6.0 0.00 0.00 0.00 33 1015.0
20260503182511 62 293 4.0 7.0 0.00 0.00 0.00 34 1015.0
20260503182012 62 18 3.0 5.0 0.00 0.00 0.00 33 1015.1
20260503181512 62 306 4.0 7.0 0.00 0.00 0.00 34 1015.2
20260503181012 60 322 4.0 6.0 0.00 0.00 0.00 35 1015.2
20260503180511 62 337 5.0 7.0 0.00 0.00 0.00 32 1015.3
20260503180012 61 320 3.0 6.0 0.00 0.00 0.00 34 1015.3
20260503175513 61 324 2.0 4.0 0.00 0.00 0.00 33 1015.3
20260503175011 61 21 4.0 11.0 0.00 0.00 0.00 35 1015.3
20260503174513 62 268 3.0 5.0 0.00 0.00 0.00 31 1015.6
20260503174012 61 337 4.0 6.0 0.00 0.00 0.00 33 1015.6
20260503173511 60 321 3.0 6.0 0.00 0.00 0.00 34 1015.5
20260503173011 60 280 7.0 12.0 0.00 0.00 0.00 35 1015.5
20260503172513 60 329 6.0 11.0 0.00 0.00 0.00 33 1015.6
20260503172013 60 317 3.0 6.0 0.00 0.00 0.00 34 1015.6
20260503171511 59 293 4.0 8.0 0.00 0.00 0.00 35 1015.6
20260503171011 59 287 3.0 4.0 0.00 0.00 0.00 38 1015.7
20260503170512 60 318 3.0 6.0 0.00 0.00 0.00 33 1015.6
20260503151014 53 13 4.0 9.0 0.00 0.00 0.00 42 1017.0
20260503150514 53 324 5.0 10.0 0.00 0.00 0.00 41 1017.0
20260503131013 48 341 5.0 10.0 0.00 0.00 0.00 52 1017.3
20260503130512 47 317 4.0 6.0 0.00 0.00 0.00 54 1017.3
20260503110511 37 300 2.0 4.0 0.00 0.00 0.00 69 1016.7
20260503090512 38 315 3.0 4.0 0.00 0.00 0.00 66 1015.7
20260503081511 38 299 2.0 4.0 0.00 0.00 0.00 66 1015.5
20260503081012 38 322 2.0 4.0 0.00 0.00 0.00 67 1015.5
20260503080511 38 297 1.0 3.0 0.00 0.00 0.00 69 1015.5
20260503072513 40 327 2.0 4.0 0.00 0.00 0.00 65 1015.1
20260503072012 40 352 2.0 5.0 0.00 0.00 0.00 64 1015.0
20260503071512 40 328 3.0 4.0 0.00 0.00 0.00 67 1015.0
20260503071011 40 311 0.0 2.0 0.00 0.00 0.00 65 1015.0
20260503070513 40 309 2.0 4.0 0.00 0.00 0.00 65 1014.9
20260503055011 42 287 2.0 3.0 0.00 0.00 0.00 66 1014.9
20260503054512 42 0 0.0 0.0 0.00 0.00 0.00 67 1015.0
20260503054014 42 280 2.0 2.0 0.00 0.00 0.00 65 1015.0
20260503053512 42 333 2.0 4.0 0.00 0.00 0.00 65 1015.0
20260503053013 42 313 3.0 6.0 0.00 0.00 0.00 68 1015.0
20260503052511 42 296 0.0 1.0 0.00 0.00 0.00 67 1015.0
20260503052012 42 349 1.0 2.0 0.00 0.00 0.00 65 1015.0
20260503051512 42 315 2.0 3.0 0.00 0.00 0.00 65 1015.0
20260503051012 42 308 2.0 3.0 0.00 0.00 0.00 64 1015.0
20260503050511 42 327 0.0 2.0 0.00 0.00 0.00 65 1014.9